DW8295 Weather Reports


time (UTC)temp
C
wind
direction
speed
KPH
gust
KPH
rain 1hr
cm
rain 24hr
cm
rain mn
cm
humidity
%
barometer
mb
20260507095427 8 344 0.0 0.0 0.00 0.61 0.08 90 1005.9
20260507094926 8 344 0.0 1.6 0.00 0.61 0.08 91 1006.1
20260507094427 8 344 0.0 4.8 0.00 0.61 0.08 91 1005.8
20260507093926 9 344 0.0 4.8 0.00 0.61 0.08 91 1005.2
20260507093648 9 344 1.6 4.8 0.00 0.61 0.08 91 1005.4
20260507092927 9 345 0.0 4.8 0.00 0.61 0.08 91 1005.7
20260507092422 9 345 0.0 6.4 0.00 0.61 0.08 91 1005.6
20260507091922 9 345 1.6 8.0 0.00 0.61 0.08 91 1005.4
20260507091422 9 345 1.6 8.0 0.00 0.61 0.08 91 1005.1
20260507091409 9 344 1.6 8.0 0.00 0.61 0.08 91 1005.1
20260507090424 9 344 1.6 8.0 0.00 0.61 0.08 91 1005.5
20260507085923 9 328 1.6 12.9 0.00 0.61 0.08 91 1005.3
20260507085422 9 325 1.6 14.5 0.00 0.61 0.08 91 1005.4
20260507084922 9 335 1.6 14.5 0.00 0.61 0.08 92 1005.3
20260507084422 9 346 3.2 14.5 0.00 0.61 0.08 92 1005.4
20260507083924 9 347 3.2 14.5 0.00 0.61 0.08 92 1005.6
20260507083424 9 331 3.2 12.9 0.00 0.61 0.08 93 1005.8
20260507082922 9 309 1.6 11.3 0.00 0.61 0.08 93 1005.7
20260507082422 10 328 1.6 8.0 0.00 0.61 0.08 94 1005.5
20260507081922 10 336 1.6 6.4 0.00 0.61 0.08 94 1005.2
20260507081423 10 338 0.0 6.4 0.00 0.61 0.08 94 1005.2
20260507080922 10 338 0.0 8.0 0.00 0.61 0.08 94 1005.0
20260507080422 10 338 1.6 8.0 0.00 0.61 0.08 94 1004.8
20260507075922 10 345 1.6 8.0 0.00 0.61 0.08 95 1004.8
20260507075417 10 339 0.0 4.8 0.00 0.61 0.08 95 1004.9
20260507074911 10 339 0.0 3.2 0.00 0.61 0.08 95 1004.9
20260507074404 10 339 0.0 0.0 0.00 0.61 0.08 95 1005.4
20260507074128 10 339 0.0 3.2 0.00 0.61 0.08 95 1005.3
20260507073353 10 339 0.0 6.4 0.00 0.61 0.08 95 1005.0
20260507072846 10 339 0.0 6.4 0.00 0.61 0.08 95 1005.0
20260507072604 10 339 0.0 1.6 0.00 0.61 0.08 95 1004.9
20260507071834 10 339 0.0 1.6 0.00 0.61 0.08 95 1004.7
20260507071329 10 339 0.0 0.0 0.00 0.61 0.08 95 1004.5
20260507070823 10 339 0.0 1.6 0.00 0.61 0.08 95 1004.4
20260507070317 10 339 0.0 1.6 0.00 0.61 0.08 95 1004.5
20260507065811 10 339 0.0 1.6 0.00 0.61 0.08 95 1004.5
20260507065306 10 339 0.0 1.6 0.00 0.61 0.08 95 1004.4
20260507064804 10 339 0.0 0.0 0.00 0.61 0.08 95 1004.5
20260507064305 10 339 0.0 0.0 0.00 0.61 0.08 95 1004.4
20260507063804 10 339 0.0 0.0 0.00 0.61 0.08 95 1004.4
20260507063302 10 339 0.0 0.0 0.03 0.61 0.08 95 1004.5
20260507062800 10 339 0.0 0.0 0.03 0.61 0.08 95 1004.4
20260507062301 10 339 0.0 3.2 0.03 0.61 0.08 95 1004.5
20260507061758 10 339 0.0 3.2 0.03 0.61 0.08 95 1004.3
20260507061258 10 339 0.0 4.8 0.03 0.61 0.08 95 1004.2
20260507061026 10 339 0.0 4.8 0.03 0.61 0.08 95 1004.3
20260507060256 11 339 0.0 4.8 0.03 0.61 0.08 95 1004.4
20260507055755 11 339 0.0 4.8 0.03 0.61 0.08 95 1004.4
20260507055254 11 340 1.6 9.7 0.03 0.61 0.08 95 1004.3
20260507054755 11 339 3.2 12.9 0.05 0.61 0.08 95 1004.1
20260507054254 11 355 4.8 14.5 0.05 0.61 0.08 95 1004.1
20260507053755 11 327 3.2 14.5 0.05 0.61 0.08 95 1004.0
20260507053254 11 323 3.2 14.5 0.03 0.58 0.05 96 1004.0
20260507052754 11 17 3.2 12.9 0.03 0.58 0.05 95 1003.9
20260507052253 12 5 3.2 12.9 0.05 0.58 0.05 96 1004.0
20260507051748 12 14 1.6 6.4 0.05 0.58 0.05 96 1004.0
20260507051242 12 24 1.6 6.4 0.05 0.58 0.05 96 1004.2
20260507051003 12 235 1.6 11.3 0.05 0.58 0.05 96 1003.9
20260507050230 12 234 1.6 11.3 0.05 0.58 0.05 96 1003.8
20260507045723 12 244 1.6 12.9 0.08 0.58 0.05 96 1003.8
20260507045439 12 281 0.0 12.9 0.08 0.58 0.05 96 1003.7
20260507044710 12 249 0.0 4.8 0.05 0.56 0.03 96 1003.6
20260507044203 12 249 0.0 3.2 0.05 0.56 0.03 96 1003.3
20260507043657 12 249 0.0 4.8 0.05 0.56 0.03 96 1003.3
20260507043153 12 248 0.0 4.8 0.08 0.56 0.03 96 1003.4
20260507042645 11 248 0.0 3.2 0.05 0.53 0.03 96 1003.1
20260507042139 11 248 0.0 8.0 0.05 0.53 0.00 96 1003.2
20260507041633 11 248 0.0 8.0 0.05 0.53 0.00 97 1003.2
20260507041127 11 243 0.0 3.2 0.05 0.53 0.00 96 1003.2
20260507040621 11 243 0.0 6.4 0.05 0.53 0.00 96 1003.4
20260507040337 11 231 1.6 8.0 0.05 0.53 0.00 96 1003.6
20260507035810 10 240 4.8 14.5 0.03 0.51 0.51 96 1003.5
20260507035654 11 214 3.2 8.0 0.03 0.51 0.51 96 1003.4
20260507034557 10 239 4.8 12.9 0.03 0.51 0.51 96 1003.6
20260507034051 10 220 4.8 12.9 0.03 0.51 0.51 96 1003.3
20260507033547 10 258 6.4 17.7 0.03 0.51 0.51 96 1003.3
20260507033039 10 210 8.0 19.3 0.00 0.48 0.48 96 1003.4
20260507032534 10 267 8.0 19.3 0.00 0.48 0.48 96 1003.4
20260507032255 10 285 6.4 14.5 0.00 0.48 0.48 96 1003.1
20260507031740 10 190 8.0 17.7 0.00 0.48 0.48 96 1003.1
20260507031015 10 238 6.4 19.3 0.00 0.48 0.48 96 1003.1
20260507030510 10 205 6.4 22.5 0.00 0.48 0.48 95 1003.1
20260507030004 10 186 6.4 22.5 0.00 0.48 0.48 96 1003.1
20260507025457 10 186 6.4 16.1 0.00 0.48 0.48 96 1003.1
20260507024951 10 233 6.4 16.1 0.00 0.48 0.48 96 1003.2
20260507024445 10 251 6.4 16.1 0.00 0.48 0.48 96 1003.4
20260507023939 10 235 6.4 20.9 0.00 0.48 0.48 96 1003.3
20260507023433 10 228 6.4 20.9 0.00 0.48 0.48 96 1003.4
20260507022927 10 227 6.4 19.3 0.00 0.48 0.48 96 1003.5
20260507022422 10 213 6.4 19.3 0.00 0.48 0.48 96 1003.6
20260507021915 10 169 6.4 17.7 0.00 0.48 0.48 96 1003.7
20260507021410 10 182 8.0 19.3 0.00 0.48 0.48 96 1003.7
20260507020903 10 251 8.0 19.3 0.00 0.48 0.48 96 1003.7
20260507020357 10 194 6.4 17.7 0.00 0.48 0.48 96 1003.8
20260507015851 10 248 6.4 17.7 0.00 0.48 0.48 95 1003.8
20260507015346 10 227 4.8 17.7 0.00 0.48 0.48 95 1003.8
20260507014840 10 194 6.4 20.9 0.00 0.48 0.48 95 1003.9
20260507014334 10 218 6.4 20.9 0.00 0.48 0.48 95 1004.0
20260507014052 10 215 6.4 16.1 0.03 0.48 0.48 95 1004.1
20260507013544 10 235 6.4 14.5 0.03 0.48 0.48 95 1004.1
20260507012816 10 199 8.0 17.7 0.03 0.48 0.48 95 1004.1
20260507012309 10 166 8.0 17.7 0.03 0.48 0.48 95 1004.2
20260507011803 10 225 6.4 17.7 0.03 0.48 0.48 95 1004.2
20260507011258 10 204 6.4 22.5 0.03 0.48 0.48 95 1004.2
20260507010751 10 215 8.0 22.5 0.03 0.48 0.48 95 1004.3
20260507010246 10 186 8.0 20.9 0.03 0.48 0.48 95 1004.3
20260507010001 10 207 6.4 19.3 0.03 0.48 0.48 95 1004.3
20260507005234 10 227 8.0 19.3 0.03 0.48 0.48 95 1004.3
20260507004728 10 208 8.0 19.3 0.03 0.48 0.48 95 1004.2
20260507004221 10 207 8.0 19.3 0.03 0.48 0.48 95 1004.2
20260507003721 10 176 11.3 29.0 0.00 0.46 0.46 95 1004.2
20260507003443 10 225 9.7 29.0 0.00 0.46 0.46 95 1004.3
20260507002719 10 165 6.4 29.0 0.00 0.46 0.46 95 1004.2
20260507002710 10 183 8.0 20.9 0.00 0.46 0.46 95 1004.2
20260507001937 10 227 9.7 22.5 0.00 0.46 0.46 95 1004.2
20260507001219 10 204 9.7 25.7 0.00 0.46 0.46 95 1004.2
20260507000719 10 174 9.7 25.7 0.00 0.46 0.46 95 1004.3
20260507000219 10 213 12.9 32.2 0.00 0.46 0.46 95 1004.3
20260506235721 10 212 11.3 32.2 0.03 0.46 0.46 95 1004.3
20260506235221 10 180 9.7 27.4 0.03 0.46 0.46 95 1004.3
20260506234720 10 166 11.3 27.4 0.03 0.46 0.46 95 1004.2
20260506234439 10 170 11.3 29.0 0.03 0.46 0.46 95 1004.3
20260506233719 10 197 11.3 29.0 0.03 0.46 0.46 95 1004.3
20260506233219 10 142 11.3 30.6 0.03 0.46 0.46 95 1004.3
20260506232719 10 205 12.9 30.6 0.03 0.46 0.46 95 1004.3
20260506232657 10 155 12.9 25.7 0.05 0.46 0.46 95 1004.3
20260506231717 10 175 11.3 25.7 0.05 0.46 0.46 94 1004.4
20260506231439 10 246 11.3 29.0 0.05 0.46 0.46 94 1004.4
20260506230710 10 178 12.9 30.6 0.08 0.46 0.46 95 1004.5
20260506230427 10 234 12.9 30.6 0.08 0.46 0.46 95 1004.4
20260506225935 10 187 12.9 32.2 0.08 0.43 0.43 94 1004.5
20260506225210 10 167 14.5 32.2 0.10 0.43 0.43 94 1004.6
20260506224710 10 213 14.5 32.2 0.13 0.43 0.43 94 1004.5
20260506224209 10 182 12.9 29.0 0.15 0.43 0.43 94 1004.5
20260506223709 10 210 11.3 25.7 0.15 0.43 0.43 94 1004.6
20260506223208 11 192 11.3 30.6 0.18 0.43 0.43 94 1004.8
20260506222708 11 157 12.9 30.6 0.20 0.43 0.43 94 1004.7
20260506222208 11 170 11.3 25.7 0.18 0.41 0.41 94 1004.7
20260506221709 11 190 12.9 29.0 0.20 0.41 0.41 94 1004.7
20260506221209 11 170 14.5 29.0 0.23 0.41 0.41 94 1004.8
20260506220936 11 225 14.5 35.4 0.23 0.38 0.41 94 1004.9
20260506220209 11 166 14.5 35.4 0.25 0.38 0.38 94 1004.9
20260506215707 11 257 14.5 30.6 0.23 0.36 0.36 94 1005.1
20260506215208 11 202 14.5 30.6 0.23 0.33 0.33 94 1005.1
20260506214708 11 178 14.5 29.0 0.20 0.30 0.30 94 1005.1
20260506214208 11 144 12.9 35.4 0.20 0.28 0.28 93 1005.1
20260506213708 11 203 12.9 35.4 0.20 0.28 0.28 93 1005.1
20260506213207 11 172 12.9 30.6 0.20 0.25 0.25 93 1005.3
20260506212707 11 177 11.3 29.0 0.18 0.23 0.23 93 1005.3
20260506212207 11 205 11.3 30.6 0.18 0.23 0.23 93 1005.3
20260506211925 11 142 9.7 30.6 0.15 0.20 0.20 93 1005.4
20260506211207 11 167 9.7 27.4 0.13 0.18 0.18 93 1005.4
20260506210707 11 173 11.3 27.4 0.10 0.15 0.15 93 1005.4
20260506210206 11 239 9.7 19.3 0.10 0.13 0.13 92 1005.5
20260506205703 11 188 8.0 19.3 0.10 0.13 0.13 92 1005.6
20260506205204 11 180 8.0 19.3 0.10 0.10 0.10 92 1005.6
20260506204703 11 194 8.0 17.7 0.10 0.10 0.10 92 1005.6
20260506204205 11 180 6.4 16.1 0.08 0.08 0.08 92 1005.7
20260506203704 11 284 6.4 20.9 0.08 0.08 0.08 92 1005.7
20260506203205 11 213 8.0 24.1 0.05 0.05 0.05 92 1005.7
20260506202703 11 180 9.7 24.1 0.05 0.05 0.05 92 1005.7
20260506202205 11 169 8.0 22.5 0.05 0.05 0.05 92 1005.6
20260506201659 11 187 8.0 17.7 0.05 0.05 0.05 92 1005.6
20260506201202 11 168 8.0 19.3 0.05 0.05 0.05 91 1005.6
20260506200659 11 188 8.0 22.5 0.05 0.05 0.05 91 1005.7
20260506200200 11 169 8.0 22.5 0.03 0.03 0.03 91 1005.8
20260506195659 12 215 8.0 16.1 0.03 0.03 0.03 91 1006.0
20260506195201 12 205 6.4 19.3 0.00 0.00 0.03 91 1006.1
20260506194659 11 157 6.4 19.3 0.00 0.00 0.00 91 1006.2
20260506194201 11 195 8.0 19.3 0.00 0.00 0.00 92 1006.2
20260506193919 11 164 8.0 17.7 0.00 0.00 0.00 91 1006.3
20260506193155 11 246 8.0 17.7 0.00 0.00 0.00 91 1006.5
20260506192654 11 225 6.4 17.7 0.00 0.00 0.00 91 1006.4
20260506192155 11 286 6.4 16.1 0.00 0.00 0.00 91 1006.3
20260506191655 11 253 6.4 16.1 0.00 0.00 0.00 90 1006.2
20260506191157 11 267 8.0 16.1 0.00 0.00 0.00 90 1006.2
20260506190656 11 260 8.0 16.1 0.00 0.00 0.00 89 1006.1
20260506190155 12 218 9.7 22.5 0.00 0.00 0.00 88 1006.1
20260506185655 12 248 9.7 22.5 0.00 0.00 0.00 88 1006.1
20260506185155 12 222 8.0 22.5 0.00 0.00 0.00 88 1005.9
20260506184651 12 271 8.0 22.5 0.00 0.00 0.00 88 1005.8
20260506184147 12 215 9.7 22.5 0.00 0.00 0.00 88 1005.7
20260506183646 12 234 9.7 22.5 0.00 0.00 0.00 88 1005.8
20260506183405 12 203 8.0 27.4 0.00 0.00 0.00 88 1005.9
20260506182645 12 179 8.0 27.4 0.00 0.00 0.00 88 1006.0
20260506182146 12 224 8.0 25.7 0.00 0.00 0.00 88 1006.0
20260506181647 12 184 8.0 19.3 0.00 0.00 0.00 88 1006.1
20260506181145 12 183 8.0 20.9 0.00 0.00 0.00 87 1006.1
20260506180643 12 186 9.7 24.1 0.00 0.00 0.00 87 1006.1
20260506180143 12 175 9.7 24.1 0.00 0.00 0.00 87 1006.2
20260506175644 12 169 9.7 24.1 0.00 0.00 0.00 87 1006.2
20260506175142 12 209 9.7 24.1 0.00 0.00 0.00 87 1006.3
20260506174852 12 173 11.3 25.7 0.00 0.00 0.00 88 1006.3
20260506174130 12 202 9.7 27.4 0.00 0.00 0.00 88 1006.2
20260506173624 12 181 6.4 27.4 0.00 0.00 0.00 88 1006.2
20260506173600 11 178 8.0 19.3 0.00 0.00 0.00 88 1006.3
20260506172612 11 203 9.7 19.3 0.00 0.00 0.00 88 1006.4
20260506172105 11 193 8.0 22.5 0.00 0.00 0.00 88 1006.5
20260506171600 11 202 8.0 22.5 0.00 0.00 0.00 88 1006.6
20260506171052 11 180 8.0 24.1 0.00 0.00 0.00 88 1006.6
20260506170547 11 207 8.0 24.1 0.00 0.00 0.00 88 1006.8
20260506170040 11 186 8.0 19.3 0.00 0.00 0.00 88 1006.8
20260506165535 11 176 8.0 19.3 0.00 0.00 0.00 88 1007.0
20260506165035 11 195 9.7 17.7 0.00 0.00 0.00 88 1007.1
20260506164536 11 210 9.7 24.1 0.00 0.00 0.00 88 1007.2
20260506164035 11 164 9.7 24.1 0.00 0.00 0.00 88 1007.2
20260506163534 12 176 8.0 20.9 0.00 0.00 0.00 87 1007.3
20260506163035 12 221 8.0 20.9 0.00 0.00 0.00 87 1007.5
20260506162533 12 184 6.4 19.3 0.00 0.00 0.00 88 1007.5
20260506162259 12 184 8.0 19.3 0.00 0.00 0.00 87 1007.7
20260506161533 12 188 8.0 19.3 0.00 0.00 0.00 87 1007.8
20260506161034 12 237 9.7 19.3 0.00 0.00 0.00 87 1007.8
20260506160533 12 148 9.7 19.3 0.00 0.00 0.00 87 1007.9
20260506160033 12 171 8.0 24.1 0.00 0.00 0.00 87 1008.0
20260506155533 12 184 9.7 24.1 0.00 0.00 0.00 89 1008.1
20260506155032 11 138 9.7 24.1 0.00 0.00 0.00 88 1008.1
20260506154535 11 207 11.3 24.1 0.00 0.00 0.00 89 1008.1
20260506154033 11 181 9.7 20.9 0.00 0.00 0.00 88 1008.0
20260506153532 11 173 11.3 29.0 0.00 0.00 0.00 88 1008.0
20260506153249 12 182 9.7 29.0 0.00 0.00 0.00 87 1008.2
20260506152521 12 190 8.0 22.5 0.00 0.00 0.00 87 1008.4
20260506152015 12 197 9.7 22.5 0.00 0.00 0.00 87 1008.3
20260506151734 12 167 9.7 25.7 0.00 0.00 0.00 87 1008.1
20260506151002 12 206 9.7 30.6 0.00 0.00 0.00 87 1008.0
20260506150459 12 172 9.7 30.6 0.00 0.00 0.00 86 1008.1
20260506145959 12 222 8.0 20.9 0.00 0.00 0.00 86 1008.1
20260506145725 13 192 9.7 22.5 0.00 0.00 0.00 87 1007.9
20260506145001 12 242 11.3 38.6 0.00 0.00 0.00 87 1007.9
20260506144457 12 180 11.3 38.6 0.00 0.00 0.00 88 1007.7
20260506143959 12 306 11.3 27.4 0.00 0.00 0.00 88 1007.8
20260506143455 12 178 9.7 24.1 0.00 0.00 0.00 88 1007.8
20260506143215 12 182 8.0 22.5 0.00 0.00 0.00 88 1007.8
20260506142455 12 225 9.7 22.5 0.00 0.00 0.00 88 1007.9
20260506141955 12 222 8.0 20.9 0.00 0.00 0.00 89 1008.0
20260506141723 12 231 6.4 20.9 0.00 0.00 0.00 89 1008.1
20260506140955 12 198 4.8 17.7 0.00 0.00 0.00 89 1008.2
20260506140455 12 239 4.8 14.5 0.00 0.00 0.00 89 1008.3
20260506135955 12 164 6.4 19.3 0.00 0.00 0.00 89 1008.3
20260506135454 11 211 6.4 20.9 0.00 0.00 0.00 89 1008.4
20260506134955 11 203 6.4 20.9 0.00 0.00 0.00 89 1008.4
20260506134455 11 217 6.4 24.1 0.00 0.00 0.00 90 1008.4
20260506133948 11 196 8.0 24.1 0.00 0.00 0.00 90 1008.4
20260506133442 11 236 8.0 24.1 0.00 0.00 0.00 89 1008.4
20260506132936 11 194 8.0 24.1 0.00 0.00 0.00 89 1008.3
20260506132430 11 192 8.0 19.3 0.00 0.00 0.00 89 1008.3
20260506132148 11 152 8.0 19.3 0.00 0.00 0.00 89 1008.3
20260506131418 11 217 8.0 17.7 0.00 0.00 0.00 89 1008.2
20260506130912 11 217 9.7 30.6 0.00 0.00 0.00 90 1008.2
20260506130406 11 180 9.7 30.6 0.00 0.00 0.00 89 1008.1
20260506125900 11 225 9.7 25.7 0.00 0.00 0.00 90 1008.2
20260506125355 11 236 9.7 25.7 0.00 0.00 0.00 89 1008.2
20260506125112 11 206 8.0 20.9 0.00 0.00 0.00 89 1008.2
20260506124342 11 167 8.0 19.3 0.00 0.00 0.00 89 1008.2
20260506123836 11 194 8.0 19.3 0.00 0.00 0.00 89 1008.1
20260506123331 11 156 8.0 24.1 0.00 0.00 0.00 90 1008.1
20260506122824 11 221 9.7 24.1 0.00 0.00 0.00 90 1008.1
20260506122319 11 204 8.0 20.9 0.00 0.00 0.00 90 1008.4
20260506122035 11 173 8.0 19.3 0.00 0.00 0.00 90 1008.4
20260506121306 11 210 8.0 19.3 0.00 0.00 0.00 90 1008.4
20260506121025 11 203 8.0 17.7 0.00 0.00 0.00 90 1008.5
20260506120522 11 223 8.0 17.7 0.00 0.00 0.00 90 1008.4
20260506115805 11 200 6.4 20.9 0.00 0.00 0.00 90 1008.4
20260506115307 11 198 6.4 20.9 0.00 0.00 0.00 91 1008.6
20260506115024 11 191 6.4 22.5 0.00 0.00 0.00 91 1008.6
20260506114305 11 194 6.4 22.5 0.00 0.00 0.00 90 1008.6
20260506113805 11 199 6.4 20.9 0.00 0.00 0.00 90 1008.7
20260506113749 11 203 6.4 16.1 0.00 0.00 0.00 90 1008.8
20260506112803 11 173 6.4 20.9 0.00 0.00 0.00 90 1008.7
20260506112305 11 200 6.4 20.9 0.00 0.00 0.00 90 1008.6
20260506111802 11 153 6.4 19.3 0.00 0.00 0.00 90 1008.6
20260506111748 11 200 6.4 19.3 0.00 0.00 0.00 91 1008.4
20260506110803 10 196 6.4 19.3 0.00 0.00 0.00 91 1008.5
20260506110257 10 213 6.4 19.3 0.00 0.00 0.00 91 1008.5
20260506110014 10 208 4.8 16.1 0.00 0.00 0.00 91 1008.5
20260506105244 10 229 3.2 12.9 0.00 0.00 0.00 91 1008.6
20260506104740 10 205 6.4 14.5 0.00 0.00 0.00 91 1008.6
20260506104233 10 202 6.4 19.3 0.00 0.00 0.00 91 1008.5
20260506103726 10 244 6.4 19.3 0.00 0.00 0.00 91 1008.5
20260506103220 10 184 8.0 20.9 0.00 0.00 0.00 91 1008.5
20260506102715 10 219 6.4 20.9 0.00 0.00 0.00 91 1008.6
20260506102434 10 203 6.4 19.3 0.00 0.00 0.00 91 1008.6
20260506101703 10 188 6.4 19.3 0.00 0.00 0.00 91 1008.5
20260506101156 10 202 6.4 14.5 0.00 0.00 0.00 91 1008.2
20260506100651 10 182 6.4 14.5 0.00 0.00 0.00 91 1008.3
20260506100144 10 200 6.4 17.7 0.00 0.00 0.00 91 1008.3